Location: Alpha Ridge Park
(39.3209°N, 76.9128°W)
Time: 16:45:46
(UTC-04:00)

Transit 2A - Pass Details

Date: 24 May 2019
Orbit: 593 x 966 km, 66.7° (Epoch: 16 June)

Event Time Altitude Azimuth Distance (km) Brightness Sun altitude
Rises 09:16:40 0° 239° (WSW) 3,560 9.1 38.3°
Reaches altitude 10° 09:19:27 10° 249° (WSW) 2,655 8.5 38.8°
Maximum altitude 09:24:58 31° 310° (NW) 1,611 7.6 39.9°
Drops below altitude 10° 09:30:35 10° 12° (NNE) 2,706 9.0 40.9°
Sets 09:33:28 0° 22° (NNE) 3,639 9.7 41.5°
